Point Hope, AK

2:33 PM AKDT on September 24, 2017 (GMT -0800)
Point Hope

Weather History for PAPO - May, 2013

Change the Weather History Date:

Wednesday, May 8, 2013

  Actual Average Record
Temperature  
Mean Temperature 30 °F -  
Max Temperature 32 °F 28 °F 42 °F (2014)
Min Temperature 28 °F 19 °F 3 °F (2000)
Degree Days  
Heating Degree Days 35    
Moisture  
Dew Point 28 °F    
Average Humidity 90    
Maximum Humidity 93    
Minimum Humidity 86    
Precipitation  
Precipitation 0.01 in - - ()
Sea Level Pressure  
Sea Level Pressure 30.18 in    
Wind  
Wind Speed 9 mph (SSE)    
Max Wind Speed 26 mph    
Max Gust Speed 28 mph    
Visibility 8 miles    
Events      
Averages and records for this station are not official NWS values.
T = Trace of Precipitation, MM = Missing Value Source: NWS Daily Summary

Daily Weather History Graph

Daily Weather History Graph

Search for Another Location

Airport or City:

Trip Planner

Search our weather history database for the weather conditions in past years. The results will help you decide how hot, cold, wet, or windy it might be!

Date:

Astronomy

May. 08, 2013 Rise Set
Actual Time 5:22 AM AKDT 12:49 AM AKDT
Civil Twilight 3:36 AM AKDT 2:31 AM AKDT
Nautical Twilight Sun does not set Sun does not set
Astronomical Twilight Sun does not set Sun does not set
Moon 5:31 AM AKDT (5/8) 11:28 PM AKDT (5/8)
Length of Visible Light 22h 55m
Length of Day
19h 26m
Waning Crescent, 1% of the Moon is Illuminated
May 8
Waning Crescent
May 9
New
May 17
First Quarter
May 24
Full
May 31
Last Quarter

Hourly Weather History & Observations

Time (AKDT) Temp. Windchill Dew Point Humidity Pressure Visibility Wind Dir Wind Speed Gust Speed Precip Events Conditions
12:36 AM 30.2 °F 26.7 °F 26.6 °F 86% 30.12 in 7.0 mi East 3.5 mph - N/A   Overcast
12:56 AM 30.2 °F - 26.6 °F 86% 30.12 in 9.0 mi Calm Calm - N/A   Overcast
1:16 AM 30.2 °F - 26.6 °F 86% 30.13 in 10.0 mi Calm Calm - N/A   Overcast
1:36 AM 30.2 °F 26.7 °F 26.6 °F 86% 30.13 in 10.0 mi South 3.5 mph - N/A   Overcast
1:56 AM 30.2 °F - 26.6 °F 86% 30.14 in 7.0 mi Calm Calm - N/A   Overcast
2:16 AM 30.2 °F - 26.6 °F 86% 30.14 in 3.0 mi Calm Calm - N/A   Overcast
2:36 AM 30.2 °F - 26.6 °F 86% 30.14 in 2.5 mi Calm Calm - N/A   Overcast
2:56 AM 30.2 °F - 26.6 °F 86% 30.15 in 3.0 mi Calm Calm - N/A   Overcast
3:16 AM 30.2 °F - 26.6 °F 86% 30.15 in 2.5 mi Calm Calm - N/A   Overcast
3:36 AM 30.2 °F 24.3 °F 26.6 °F 86% 30.15 in 2.0 mi SSW 5.8 mph - N/A   Overcast
3:56 AM 28.4 °F 22.2 °F 26.6 °F 93% 30.15 in 3.0 mi SSW 5.8 mph - N/A   Overcast
4:16 AM 28.4 °F 23.3 °F 26.6 °F 93% 30.15 in 9.0 mi South 4.6 mph - N/A   Overcast
4:36 AM 28.4 °F 23.3 °F 26.6 °F 93% 30.15 in 3.0 mi South 4.6 mph - N/A   Overcast
4:56 AM 28.4 °F 24.6 °F 26.6 °F 93% 30.16 in 6.0 mi South 3.5 mph - N/A   Overcast
5:16 AM 28.4 °F 24.6 °F 26.6 °F 93% 30.16 in 9.0 mi South 3.5 mph - N/A   Overcast
5:36 AM 28.4 °F - 26.6 °F 93% 30.16 in 10.0 mi Calm Calm - N/A   Overcast
5:56 AM 28.4 °F 24.6 °F 26.6 °F 93% 30.16 in 10.0 mi SSE 3.5 mph - N/A   Overcast
6:16 AM 28.4 °F 22.2 °F 26.6 °F 93% 30.16 in 10.0 mi SSE 5.8 mph - N/A   Overcast
6:36 AM 28.4 °F 22.2 °F 26.6 °F 93% 30.16 in 10.0 mi SE 5.8 mph - N/A   Overcast
6:56 AM 28.4 °F 21.2 °F 26.6 °F 93% 30.16 in 10.0 mi SSE 6.9 mph - N/A   Overcast
7:16 AM 30.2 °F 23.4 °F 28.4 °F 93% 30.17 in 8.0 mi South 6.9 mph - N/A   Overcast
7:36 AM 30.2 °F 22.6 °F 26.6 °F 86% 30.17 in 8.0 mi South 8.1 mph - N/A   Overcast
7:56 AM 30.2 °F 21.9 °F 26.6 °F 86% 30.17 in 7.0 mi South 9.2 mph - N/A   Overcast
8:16 AM 30.2 °F 21.9 °F 28.4 °F 93% 30.17 in 0.2 mi South 9.2 mph - N/A   Overcast
8:36 AM 30.2 °F 20.2 °F 28.4 °F 93% 30.17 in 5.0 mi South 12.7 mph - 0.01 in   Overcast
8:56 AM 30.2 °F 20.8 °F 28.4 °F 93% 30.18 in 1.5 mi South 11.5 mph - 0.01 in   Overcast
9:16 AM 30.2 °F 20.2 °F 28.4 °F 93% 30.18 in 1.0 mi South 12.7 mph - N/A   Overcast
9:36 AM 30.2 °F 19.8 °F 28.4 °F 93% 30.18 in 10.0 mi South 13.8 mph - N/A   Overcast
9:56 AM 30.2 °F 20.8 °F 28.4 °F 93% 30.18 in 2.5 mi South 11.5 mph - N/A   Overcast
10:16 AM 30.2 °F 20.2 °F 28.4 °F 93% 30.18 in 1.0 mi South 12.7 mph - N/A   Overcast
10:56 AM 30.2 °F 19.8 °F 28.4 °F 93% 30.19 in 3.0 mi South 13.8 mph - N/A   Overcast
11:16 AM 30.2 °F 19.3 °F 28.4 °F 93% 30.19 in 1.0 mi South 15.0 mph - N/A   Overcast
11:36 AM 30.2 °F 19.8 °F 28.4 °F 93% 30.19 in 5.0 mi South 13.8 mph - N/A   Overcast
11:56 AM 30.2 °F 19.8 °F 28.4 °F 93% 30.20 in 10.0 mi South 13.8 mph - N/A   Overcast
12:16 PM 30.2 °F 18.9 °F 28.4 °F 93% 30.20 in 10.0 mi South 16.1 mph - N/A   Overcast
12:36 PM 30.2 °F 18.9 °F 28.4 °F 93% 30.20 in 10.0 mi South 16.1 mph - N/A   Overcast
12:56 PM 30.2 °F 18.9 °F 28.4 °F 93% 30.20 in 10.0 mi South 16.1 mph - N/A   Overcast
1:16 PM 30.2 °F 18.5 °F 28.4 °F 93% 30.20 in 10.0 mi South 17.3 mph - N/A   Overcast
1:36 PM 32.0 °F 21.2 °F 28.4 °F 87% 30.21 in 10.0 mi South 16.1 mph - N/A   Overcast
1:56 PM 32.0 °F 20.1 °F 28.4 °F 87% 30.21 in 10.0 mi South 19.6 mph - N/A   Overcast
2:16 PM 32.0 °F 20.5 °F 28.4 °F 87% 30.21 in 10.0 mi South 18.4 mph - N/A   Overcast
2:56 PM 32.0 °F 19.8 °F 28.4 °F 87% 30.20 in 10.0 mi South 20.7 mph 25.3 mph N/A   Overcast
3:16 PM 32.0 °F 20.5 °F 28.4 °F 87% 30.21 in 10.0 mi South 18.4 mph - N/A   Overcast
3:36 PM 32.0 °F 20.1 °F 28.4 °F 87% 30.21 in 10.0 mi South 19.6 mph - N/A   Overcast
3:56 PM 32.0 °F 20.5 °F 28.4 °F 87% 30.21 in 10.0 mi South 18.4 mph - N/A   Overcast
4:36 PM 32.0 °F 20.5 °F 28.4 °F 87% 30.21 in 10.0 mi SSE 18.4 mph 23.0 mph N/A   Overcast
4:56 PM 32.0 °F 19.5 °F 28.4 °F 87% 30.21 in 10.0 mi South 21.9 mph - N/A   Overcast
5:16 PM 32.0 °F 19.2 °F 28.4 °F 87% 30.21 in 10.0 mi South 23.0 mph - N/A   Overcast
5:36 PM 32.0 °F 19.8 °F 28.4 °F 87% 30.21 in 10.0 mi SSE 20.7 mph - N/A   Overcast
5:56 PM 32.0 °F 19.5 °F 28.4 °F 87% 30.21 in 10.0 mi SSE 21.9 mph - N/A   Overcast
6:16 PM 32.0 °F 19.8 °F 28.4 °F 87% 30.21 in 10.0 mi SSE 20.7 mph 26.5 mph N/A   Overcast
6:36 PM 32.0 °F 19.5 °F 28.4 °F 87% 30.20 in 10.0 mi SSE 21.9 mph 26.5 mph N/A   Overcast
6:56 PM 32.0 °F 19.5 °F 28.4 °F 87% 30.21 in 10.0 mi SSE 21.9 mph - N/A   Overcast
7:16 PM 32.0 °F 19.5 °F 28.4 °F 87% 30.20 in 10.0 mi SSE 21.9 mph - N/A   Overcast
7:36 PM 32.0 °F 19.8 °F 28.4 °F 87% 30.20 in 10.0 mi SSE 20.7 mph - N/A   Overcast
7:56 PM 32.0 °F 20.5 °F 28.4 °F 87% 30.20 in 10.0 mi SSE 18.4 mph - N/A   Overcast
8:16 PM 30.2 °F 17.1 °F 28.4 °F 93% 30.19 in 10.0 mi SSE 21.9 mph - N/A   Overcast
8:36 PM 30.2 °F 17.4 °F 28.4 °F 93% 30.19 in 10.0 mi SSE 20.7 mph - N/A   Overcast
9:16 PM 30.2 °F 17.4 °F 28.4 °F 93% 30.18 in 10.0 mi SSE 20.7 mph - N/A   Overcast
9:36 PM 30.2 °F 16.8 °F 28.4 °F 93% 30.17 in 7.0 mi SSE 23.0 mph 27.6 mph N/A   Overcast
9:56 PM 30.2 °F 17.4 °F 28.4 °F 93% 30.17 in 8.0 mi SSE 20.7 mph - N/A   Overcast
10:16 PM 32.0 °F 18.9 °F 28.4 °F 87% 30.17 in 10.0 mi SSE 24.2 mph - N/A   Overcast
10:36 PM 32.0 °F 18.4 °F 28.4 °F 87% 30.16 in 4.0 mi SSE 26.5 mph - N/A   Overcast
11:16 PM 32.0 °F 20.1 °F 28.4 °F 87% 30.18 in 10.0 mi South 19.6 mph - N/A   Overcast
11:36 PM 32.0 °F 19.8 °F 28.4 °F 87% 30.18 in 10.0 mi South 20.7 mph - N/A   Overcast
11:56 PM 32.0 °F 19.5 °F 28.4 °F 87% 30.18 in 10.0 mi South 21.9 mph - N/A   Overcast